DLH2UC EDDB-EDDF

Flight info

Callsign DLH2UC
Flight time N/A
Altitude 23000
Route KISUC1B KISUC Z117 ODLUN/N0412F240 DCT ORTAG/N0399F220 T177 ODIPI/N0394F210 T157 KERAX KERAX5A
Aircraft A321/M-SDE3FGHIRWY/LB1

Departure

Time N/A
Airport Berlin Brandenburg Airport (EDDB)

Arrival

Time 2026-05-05 13:19
Airport Frankfurt Main Airport (EDDF)
Time Latitude Longitude Altitude Speed Heading
2026-05-05 13:01 50.65553 9.76648 15832 ft 384 kts 242°
2026-05-05 13:01 50.64316 9.72950 15232 ft 379 kts 237°
2026-05-05 13:01 50.62733 9.69670 14653 ft 374 kts 225°
2026-05-05 13:01 50.60790 9.66990 14081 ft 370 kts 214°
2026-05-05 13:02 50.58573 9.64977 13481 ft 367 kts 204°
2026-05-05 13:02 50.56218 9.63497 12864 ft 362 kts 201°
2026-05-05 13:02 50.53881 9.62089 12304 ft 357 kts 201°
2026-05-05 13:02 50.51599 9.60612 11725 ft 353 kts 207°
2026-05-05 13:03 50.49552 9.58544 11188 ft 349 kts 219°
2026-05-05 13:03 50.47867 9.55848 10725 ft 344 kts 232°
2026-05-05 13:03 50.46605 9.52588 10696 ft 360 kts 243°
2026-05-05 13:03 50.45734 9.48891 10618 ft 358 kts 251°
2026-05-05 13:04 50.45046 9.45236 10506 ft 341 kts 252°
2026-05-05 13:04 50.44397 9.41748 10419 ft 325 kts 252°
2026-05-05 13:04 50.43771 9.38414 10326 ft 313 kts 251°
2026-05-05 13:04 50.43154 9.35216 10247 ft 300 kts 251°
2026-05-05 13:05 50.42569 9.32154 10167 ft 288 kts 251°
2026-05-05 13:05 50.41994 9.29149 10091 ft 288 kts 251°
2026-05-05 13:05 50.41419 9.26145 10010 ft 288 kts 252°
2026-05-05 13:05 50.40806 9.23165 9882 ft 287 kts 249°
2026-05-05 13:06 50.40116 9.20249 9681 ft 285 kts 248°
2026-05-05 13:06 50.39431 9.17333 9565 ft 285 kts 248°
2026-05-05 13:06 50.38755 9.14419 9436 ft 284 kts 249°
2026-05-05 13:06 50.38082 9.11508 9286 ft 284 kts 249°
2026-05-05 13:07 50.37408 9.08605 9167 ft 284 kts 249°
2026-05-05 13:07 50.36734 9.05703 9034 ft 283 kts 249°
2026-05-05 13:07 50.36062 9.02807 8900 ft 283 kts 249°
2026-05-05 13:07 50.35387 8.99924 8776 ft 282 kts 249°
2026-05-05 13:08 50.34711 8.97041 8637 ft 282 kts 249°
2026-05-05 13:08 50.34040 8.94168 8510 ft 281 kts 249°
2026-05-05 13:08 50.33373 8.91293 8379 ft 281 kts 249°
2026-05-05 13:08 50.32707 8.88465 8250 ft 280 kts 248°
2026-05-05 13:09 50.31736 8.85818 8110 ft 277 kts 225°
2026-05-05 13:09 50.30186 8.84153 7990 ft 275 kts 199°
2026-05-05 13:09 50.28313 8.83771 7812 ft 273 kts 173°
2026-05-05 13:09 50.26502 8.84600 7433 ft 272 kts 159°
2026-05-05 13:10 50.24755 8.85729 7048 ft 272 kts 150°
2026-05-05 13:10 50.23359 8.87674 6708 ft 271 kts 125°
2026-05-05 13:10 50.22683 8.90398 6356 ft 273 kts 97°
2026-05-05 13:10 50.22905 8.93319 5970 ft 274 kts 72°
2026-05-05 13:11 50.23559 8.96121 5576 ft 275 kts 71°
2026-05-05 13:11 50.24070 8.98975 5211 ft 272 kts 85°
2026-05-05 13:11 50.23927 9.01881 4916 ft 269 kts 108°
2026-05-05 13:11 50.23068 9.04420 4647 ft 264 kts 132°
2026-05-05 13:12 50.21644 9.06172 4306 ft 261 kts 156°
2026-05-05 13:12 50.19907 9.06863 4042 ft 259 kts 179°
2026-05-05 13:12 50.18131 9.06446 3998 ft 261 kts 200°
2026-05-05 13:12 50.16555 9.05042 3992 ft 263 kts 219°
2026-05-05 13:13 50.15302 9.02970 3995 ft 263 kts 234°
2026-05-05 13:13 50.14403 9.00480 3996 ft 265 kts 246°
2026-05-05 13:13 50.13742 8.97799 3997 ft 265 kts 249°
2026-05-05 13:13 50.13111 8.95104 4000 ft 264 kts 249°
2026-05-05 13:14 50.12495 8.92481 3990 ft 250 kts 249°
2026-05-05 13:14 50.11918 8.90019 3994 ft 234 kts 249°
2026-05-05 13:14 50.11375 8.87707 3993 ft 224 kts 249°
2026-05-05 13:14 50.10839 8.85433 3918 ft 223 kts 249°
2026-05-05 13:15 50.10307 8.83173 3628 ft 222 kts 249°
2026-05-05 13:15 50.09777 8.80925 3343 ft 220 kts 249°
2026-05-05 13:15 50.09250 8.78689 3055 ft 220 kts 249°
2026-05-05 13:15 50.08724 8.76461 2763 ft 218 kts 249°
2026-05-05 13:16 50.08208 8.74278 2489 ft 211 kts 249°
2026-05-05 13:16 50.07722 8.72222 2198 ft 194 kts 249°
2026-05-05 13:16 50.07486 8.71224 2078 ft 182 kts 249°
2026-05-05 13:17 50.07144 8.69780 1872 ft 165 kts 249°
2026-05-05 13:17 50.06766 8.68187 1662 ft 151 kts 248°
2026-05-05 13:17 50.06408 8.66679 1463 ft 147 kts 249°
2026-05-05 13:17 50.06056 8.65199 1275 ft 146 kts 249°
2026-05-05 13:18 50.05707 8.63729 1086 ft 143 kts 249°
2026-05-05 13:18 50.05355 8.62249 907 ft 156 kts 250°
2026-05-05 13:18 50.04992 8.60723 753 ft 147 kts 250°
2026-05-05 13:18 50.04644 8.59232 485 ft 143 kts 249°
2026-05-05 13:19 50.04301 8.57820 367 ft 130 kts 249°
2026-05-05 13:19 50.04033 8.56691 361 ft 95 kts 250°
2026-05-05 13:19 50.03857 8.55956 359 ft 59 kts 249°
2026-05-05 13:19 50.03732 8.55431 354 ft 48 kts 250°
2026-05-05 13:20 50.03689 8.55060 343 ft 26 kts 277°
2026-05-05 13:20 50.03744 8.54847 352 ft 19 kts 351°
2026-05-05 13:20 50.03819 8.54986 356 ft 18 kts 68°
2026-05-05 13:20 50.03865 8.55175 354 ft 19 kts 70°
2026-05-05 13:21 50.03910 8.55376 358 ft 20 kts 70°
2026-05-05 13:21 50.03961 8.55590 354 ft 22 kts 70°
2026-05-05 13:21 50.04014 8.55816 357 ft 23 kts 70°
2026-05-05 13:21 50.04105 8.55953 354 ft 19 kts 348°
2026-05-05 13:22 50.04235 8.55927 354 ft 19 kts 14°
2026-05-05 13:22 50.04365 8.55982 359 ft 19 kts 18°
2026-05-05 13:22 50.04440 8.56119 362 ft 16 kts 114°
2026-05-05 13:22 50.04396 8.56163 362 ft 5 kts 155°
2026-05-05 13:23 50.04391 8.56167 360 ft 0 kts 155°